Location: Brienzwiler
(46.7508°N, 8.1014°E)
Time: 01:12:01
(UTC+00:00)

Cosmos 967 Rocket - Pass Details

Date: 05 July 2020
Orbit: 947 x 991 km, 65.8° (Epoch: 11 August)

Event Time Altitude Azimuth Distance (km) Brightness Sun altitude
Exits shadow 21:55:33 - 210° (SSW) 2,963 6.7 -17.2°
Reaches altitude 10° 21:56:09 10° 210° (SSW) 2,744 6.5 -17.3°
Maximum altitude 22:02:36 84° 123° (ESE) 1,002 4.5 -17.7°
Drops below altitude 10° 22:09:05 10° 36° (NE) 2,757 7.3 -18.1°
Sets 22:11:40 0° 36° (NE) 3,706 8.0 -18.2°
